sat.trackr.live / text

‹ back to catalog

BADR-7 (ARABSAT-6B)

NORAD 41029 · 2015-065B

PAYLOAD ACTIVE UNKNOWN

§ Identity

Operator
Country
AB
Launch date
2015-11-10
Launch site
FRGUI
Launch vehicle
Mass (kg)
RCS (m²)
78.97

Purposes: comms

External: N2YO · Heavens-Above · Gunter

§ Orbital elements

Epoch: 2026-09-20T01:38:53.895840Z

Period
1,436.06 min
Inclination
0.0229°
Eccentricity
0.0006501
Mean motion
1.00274329 rev/d
Perigee alt
35,758.5 km
Apogee alt
35,813.3 km
Semi-major
42,164.0 km
B*
0.0000e+0
RAAN
206.0167°
Arg perigee
14.2504°
Mean anomaly
189.4319°
Rev number
3,971

§ Raw data

BADR-7 (ARABSAT-6B)1 41029U 15065B   26263.06867935  .00000141  00000+0  00000+0 0  99902 41029   0.0229 206.0167 0006501  14.2504 189.4319  1.00274329 39714

JSON: /api/v1/satellites/41029 · /tle

For live sub-satellite position, see the globe view (requires WebGL).

§ Visibility from observer

Set your observer location to see the next 7 days of passes ≥ 10°. The values pass through the URL so the page stays shareable.

No JS? Fill the form by hand. The geolocation button needs JavaScript.